Regional Weather Roundup
Issued by NWS

Home | Current Version | Previous Version | Graphics & Text | Print | Product List | Glossary On
Versions: 1 2 3 4 5 6 7 8 9 10 11 12 13 14 15 16 17 18 19 20 21 22 23 24 25 26 27 28 29 30 31 32 33 34 35 36 37 38 39 40 41 42 43 44 45 46 47 48 49 50
045
ASUS45 KBOU 181910
RWRCO

WEATHER ROUNDUP FOR COLORADO
NATIONAL WEATHER SERVICE DENVER/BOULDER CO
1200 PM MST SUN FEB 18 2018

NOTE: "FAIR" INDICATES FEW OR NO CLOUDS BELOW 12000 FEET WITH NO
SIGNIFICANT WEATHER AND/OR OBSTRUCTIONS TO VISIBILITY.

COZ001>005-013-030-031-182000-
...NORTHWEST COLORADO...

CITY           SKY/WX    TMP DP  RH WIND       PRES   REMARKS
CRAIG          FAIR      47  21  35 SW20G28   29.59F
HAYDEN         FAIR      45  20  36 W25G33    29.59F
MEEKER         FAIR      49  18  29 SW21G30   29.62F
RANGELY        FAIR      55  17  23 SW31G41   29.57F
RABBIT EARS PA CLOUDY    28  16  59 SW10G21   29.68F WCI  19
STEAMBOAT SPGS FAIR      43  16  34 CALM      29.60F
WALDEN         FAIR      41  14  33 SW23G29   29.63S
$$

COZ006>008-011-182000-
...WEST CENTRAL VALLEYS...

CITY           SKY/WX    TMP DP  RH WIND       PRES   REMARKS
GRAND JUNCTION FAIR      52  28  39 W7        29.68F
MONTROSE       FAIR      56  15  20 SW16G25   29.74F
EAGLE          FAIR      49  19  30 SW23G31   29.67F
RIFLE          FAIR      47  23  38 SE9       29.65F
DELTA          FAIR      59  17  19 SW6       29.72F
NUCLA          FAIR      54  18  24 S17G26    29.83F
$$

COZ017>023-064>068-182000-
...SOUTHWEST COLORADO...

CITY           SKY/WX    TMP DP  RH WIND       PRES   REMARKS
DURANGO        FAIR      46  25  43 VRB6      29.91F
CORTEZ         FAIR      52  19  27 SW13      29.87F
PAGOSA SPRINGS FAIR      41  26  55 CALM      29.94F
TELLURIDE      FAIR      41   6  23 SW23G35   29.87S
WOLF CREEK PAS PTSUNNY   21  19  93 S29G40    29.94F WCI   3
$$

COZ009-010-012-014-032>034-037-058>063-182000-
...CENTRAL COLORADO...

CITY           SKY/WX    TMP DP  RH WIND       PRES   REMARKS
ASPEN          FAIR      48  11  22 N10G20    29.66F
BUENA VISTA    FAIR      51  -1  12 SW21G37   29.66F
COPPER MTN     FAIR      32   7  34 W28G37    29.76F HAZE    WCI  18
BERTHOUD PASS  FAIR      25  14  63 W58G75    29.63F WCI   3
COTTONWOOD PAS FAIR      45   0  15 W30G55    29.68F
GUNNISON       FAIR      45  15  30 W18G25    29.74F
GRANBY         FAIR      41  17  38 W20G26    29.69S
KREMMLING      FAIR      50  19  29 SW17G29   29.66F
LEADVILLE      FAIR      38   5  25 SW18G45   29.69F
MONARCH PASS     N/A     23  10  58 W51G64    29.87F HAZE    WCI   1
SALIDA         FAIR      53   3  13 SW14G26   29.78F
SUNLIGHT       FAIR      32  19  59 SW18G38   29.76  WCI  20
WILKERSON PASS FAIR      34  -4  19 SW31G47   29.71F WCI  20
$$

COZ069>075-182000-
...SAN LUIS VALLEY/SANGRE DE CRISTO MOUNTAINS...

CITY           SKY/WX    TMP DP  RH WIND       PRES   REMARKS
ALAMOSA        FAIR      48  15  26 S18G33    29.78F
DEL NORTE      FAIR      47  14  26 SW20G35   29.79F
LA VETA PASS   FAIR      37  21  52 S45G66    29.85R
SAGUACHE       FAIR      46  12  25 SE10      29.75F
$$

COZ035-036-038>040-182000-
...NORTHERN COLORADO FRONT RANGE...

CITY           SKY/WX    TMP DP  RH WIND       PRES   REMARKS
DENVER INTL AP PTSUNNY   65   9  11 CALM      29.47F
AURORA         PTSUNNY   64   2   8 W7        29.48F
FRONT RANGE AP PTSUNNY   64   7  10 SE7G18    29.49F
ERIE MUNI ARPT FAIR      65   3   8 W23G32    29.51F
BOULDER MUN AP FAIR      63  12  14 SW18G31   29.45F
CENTENNIAL     FAIR      65   5   9 W24G33    29.48F
BROOMFIELD     PTSUNNY   66   9  10 W30       29.47F
FORT COLLINS   FAIR      64  13  13 W23       29.44F
LONGMONT       FAIR      67  10  10 W22G32    29.46F
$$

COZ041-046-047-076>085-087-088-182000-
...PIKES PEAK/PALMER DIVIDE AND SOUTHERN FOOTHILLS...

CITY           SKY/WX    TMP DP  RH WIND       PRES   REMARKS
COLO. SPRINGS  FAIR      63   0   8 W30G36    29.54F
A. F. ACADEMY  FAIR      60  -5   7 SW16G32   29.55F
SCHRIEVER AFB  NOT AVBL
CHEYENNE MTN   FAIR      55   3  12 NE14G28   29.52R
ELLICOTT         N/A    N/A N/A N/A SW26G40   29.56F
FALCON         FAIR      60  -3   7 W6        29.59F
FORT CARSON    SUNNY     63  -6   6 W25G54    29.54F
LIMON          FAIR      64   4   9 S17       29.54F
MONUMENT HILL  FAIR      55   1  11 W40G54    29.56F
CANON CITY     SUNNY     64  10  12 W25G45    29.57F
WALSENBURG     NOT AVBL
TRINIDAD       FAIR      66   6   9 SW18G26   29.65S
$$

COZ042>045-048>051-090-091-182000-
...NORTHEAST COLORADO...

CITY           SKY/WX    TMP DP  RH WIND       PRES   REMARKS
GREELEY ARPT   FAIR      67  13  12 SW18G26   29.45F
AKRON          FAIR      67  13  12 SW15G23   29.47F
BURLINGTON     FAIR      66  11  11 SW29G41   29.53F
WRAY           FAIR      72  12  10 SW10G17   29.45F
YUMA           NOT AVBL
STERLING       FAIR      66  18  15 S7        29.44F
HOLYOKE        FAIR      73  18  12 W7        29.46F
FORT MORGAN    FAIR      68   6   8 W9G16     29.47F
$$

COZ086-089-092>099-182000-
...SOUTHEAST COLORADO...

CITY           SKY/WX    TMP DP  RH WIND       PRES   REMARKS
PUEBLO         FAIR      66  14  13 SW7       29.55F
LA JUNTA       FAIR      67  18  15 SW26G38   29.58F
LAMAR          LGT RAIN  70   9   9 SW16G25   29.56F
SPRINGFIELD      N/A     71  12  10 SW26G33   29.61F
$$




USA.gov is the U.S. government's official web portal to all federal, state and local government web resources and services.